Renton, WA

10:18 AM PST on December 18, 2018 (GMT -0800)
Renton Municipal

Weather History for KRNT - July, 2009

Change the Weather History Date:

Wednesday, July 29, 2009

  Actual Average (KRNT) Record (KRNT)
Temperature  
Mean Temperature 88 °F -  
Max Temperature 105 °F 76 °F 93 °F (2003)
Min Temperature 72 °F 57 °F 55 °F (2006)
Cooling Degree Days 24    
Growing Degree Days 38 (Base 50)    
Moisture  
Dew Point 63 °F    
Average Humidity 49    
Maximum Humidity 85    
Minimum Humidity 20    
Precipitation  
Precipitation 0.00 in - - ()
Sea Level Pressure  
Sea Level Pressure 29.78 in    
Wind  
Wind Speed 3 mph (NNW)    
Max Wind Speed 9 mph    
Max Gust Speed -    
Visibility 10 miles    
Events      
Averages and records for this station are not official NWS values.
T = Trace of Precipitation, MM = Missing Value Source: NWS Daily Summary

Daily Weather History Graph

Daily Weather History Graph

Search for Another Location

Airport or City:

Astronomy

Jul. 29, 2009 Rise Set
Actual Time 5:42 AM PDT 8:46 PM PDT
Civil Twilight 5:06 AM PDT 9:22 PM PDT
Nautical Twilight 4:18 AM PDT 10:09 PM PDT
Astronomical Twilight 3:20 AM PDT 11:07 PM PDT
Moon 3:25 PM PDT (7/29) No Moon Set
Length of Visible Light 16h 16m
Length of Day
15h 03m
First Quarter, 59% of the Moon is Illuminated
Jul 29
First Quarter
Aug 5
Full
Aug 13
Last Quarter
Aug 20
New
Aug 27
First Quarter

Hourly Weather History & Observations

Time (PDT) Temp. Heat Index Dew Point Humidity Pressure Visibility Wind Dir Wind Speed Gust Speed Precip Events Conditions
12:53 AM 77.0 °F - 66.0 °F 69% 29.81 in 10.0 mi Calm Calm - N/A   Clear
1:53 AM 75.0 °F - 66.0 °F 73% 29.81 in 10.0 mi Calm Calm - N/A   Clear
2:53 AM 73.9 °F - 66.0 °F 76% 29.81 in 10.0 mi Calm Calm - N/A   Clear
3:53 AM 72.0 °F - 66.0 °F 81% 29.81 in 10.0 mi Calm Calm - N/A   Clear
4:53 AM 73.0 °F - 66.0 °F 79% 29.81 in 10.0 mi Calm Calm - N/A   Clear
5:53 AM 73.0 °F - 68.0 °F 84% 29.81 in 9.0 mi NNW 3.5 mph - N/A   Clear
6:53 AM 73.9 °F - 69.1 °F 85% 29.82 in 9.0 mi NNW 5.8 mph - N/A   Clear
7:53 AM 77.0 °F - 69.1 °F 76% 29.83 in 9.0 mi NNW 8.1 mph - N/A   Clear
8:53 AM 79.0 °F - 69.1 °F 72% 29.83 in 9.0 mi NNW 5.8 mph - N/A   Clear
9:53 AM 82.9 °F 85.8 °F 68.0 °F 60% 29.82 in 10.0 mi NNW 5.8 mph - N/A   Clear
10:53 AM 93.0 °F 94.2 °F 63.0 °F 37% 29.81 in 10.0 mi NNW 5.8 mph - N/A   Clear
11:53 AM 96.1 °F 96.0 °F 60.1 °F 30% 29.80 in 10.0 mi NW 6.9 mph - N/A   Clear
12:53 PM 99.0 °F 98.6 °F 59.0 °F 26% 29.79 in 10.0 mi NW 6.9 mph - N/A   Clear
1:53 PM 100.0 °F 100.7 °F 60.1 °F 27% 29.78 in 10.0 mi NW 6.9 mph - N/A   Clear
2:53 PM 102.0 °F 102.2 °F 59.0 °F 24% 29.76 in 10.0 mi NW 9.2 mph - N/A   Clear
3:53 PM 105.1 °F 104.4 °F 57.0 °F 20% 29.74 in 10.0 mi WNW 6.9 mph - N/A   Clear
4:53 PM 100.9 °F 104.6 °F 64.9 °F 31% 29.72 in 10.0 mi NNW 6.9 mph - N/A   Clear
5:53 PM 102.0 °F 101.6 °F 57.9 °F 23% 29.72 in 10.0 mi SE 5.8 mph - N/A   Partly Cloudy
6:53 PM 100.0 °F 99.2 °F 57.0 °F 24% 29.73 in 10.0 mi ESE 6.9 mph - N/A   Clear
7:53 PM 98.1 °F 97.2 °F 57.9 °F 26% 29.73 in 10.0 mi SSE 6.9 mph - N/A   Clear
8:53 PM 95.0 °F 93.7 °F 57.0 °F 28% 29.74 in 10.0 mi Variable 3.5 mph - N/A   Clear
9:53 PM 91.9 °F 90.8 °F 57.9 °F 32% 29.75 in 10.0 mi SSE 4.6 mph - N/A   Clear
10:53 PM 90.0 °F 88.6 °F 57.0 °F 33% 29.76 in 10.0 mi SSE 4.6 mph - N/A   Clear
11:53 PM 84.0 °F 85.8 °F 64.9 °F 53% 29.77 in 10.0 mi NNW 3.5 mph - N/A   Clear